DW8750 Weather Reports


time (UTC)temp
C
wind
direction
speed
KPH
gust
KPH
rain 1hr
cm
rain 24hr
cm
rain mn
cm
humidity
%
barometer
mb
20260906092433 30 13 8.0 12.9 0.00 0.00 0.00 62 1021.2
20260906091432 30 351 8.0 16.1 0.00 0.00 0.00 64 1021.3
20260906090436 30 355 6.4 14.5 0.00 0.00 0.00 65 1021.5
20260906085434 30 355 6.4 12.9 0.00 0.00 0.00 66 1021.4
20260906084430 30 317 6.4 14.5 0.00 0.00 0.00 66 1021.4
20260906083429 31 320 4.8 8.0 0.00 0.00 0.00 65 1021.3
20260906082429 31 82 1.6 9.7 0.00 0.00 0.00 60 1021.3
20260906081429 30 5 3.2 4.8 0.00 0.00 0.00 62 1021.4
20260906080427 30 5 0.0 4.8 0.00 0.00 0.00 65 1021.3
20260906073427 29 83 3.2 6.4 0.00 0.00 0.00 69 1021.2
20260906072428 29 40 1.6 4.8 0.00 0.00 0.00 71 1021.2
20260906071428 29 40 3.2 6.4 0.00 0.00 0.00 71 1021.1
20260906070428 28 259 1.6 4.8 0.00 0.00 0.00 72 1021.0
20260906065426 28 238 1.6 6.4 0.00 0.00 0.00 73 1021.0
20260906064425 28 266 3.2 6.4 0.00 0.00 0.00 73 1020.9
20260906063426 27 239 3.2 4.8 0.00 0.00 0.00 71 1020.9
20260906061428 26 242 3.2 6.4 0.00 0.00 0.00 71 1020.9
20260906060425 26 215 1.6 4.8 0.00 0.00 0.00 71 1020.8
20260906055426 26 188 1.6 6.4 0.00 0.00 0.00 71 1020.8
20260906054425 25 203 3.2 8.0 0.00 0.00 0.00 71 1020.7
20260906053426 25 182 4.8 9.7 0.00 0.00 0.00 71 1020.7
20260906051426 24 204 6.4 8.0 0.00 0.00 0.00 70 1020.6
20260906050427 24 207 6.4 9.7 0.00 0.00 0.00 69 1020.6
20260906045424 24 191 6.4 9.7 0.00 0.00 0.00 70 1020.6
20260906043429 23 180 6.4 9.7 0.00 0.00 0.00 69 1020.4
20260906042425 24 193 6.4 11.3 0.00 0.00 0.00 69 1020.5
20260906041432 24 180 4.8 9.7 0.00 0.00 0.00 68 1020.5
20260906040426 24 198 6.4 9.7 0.00 0.00 0.00 67 1020.3
20260906035427 24 221 6.4 8.0 0.00 0.00 0.00 67 1020.3
20260906034423 24 200 4.8 8.0 0.00 0.00 0.00 66 1020.2
20260906030426 24 194 6.4 9.7 0.00 0.00 0.00 63 1020.1
20260906025423 24 171 6.4 9.7 0.00 0.00 0.00 63 1020.1
20260906024423 24 194 6.4 9.7 0.00 0.00 0.00 62 1020.2
20260906023421 24 185 6.4 11.3 0.00 0.00 0.00 62 1020.3
20260906022423 24 188 4.8 8.0 0.00 0.00 0.00 62 1020.3
20260906021422 24 200 4.8 9.7 0.00 0.00 0.00 62 1020.3
20260906020421 24 177 4.8 8.0 0.00 0.00 0.00 61 1020.3
20260906014412 25 229 3.2 6.4 0.00 0.00 0.00 63 1020.3
20260906013415 25 205 3.2 6.4 0.00 0.00 0.00 63 1020.2
20260906012417 25 160 1.6 6.4 0.00 0.00 0.00 64 1020.2
20260906011421 25 189 3.2 8.0 0.00 0.00 0.00 65 1020.2
20260906010415 25 215 4.8 9.7 0.00 0.00 0.00 66 1020.2
20260906004408 25 204 6.4 9.7 0.00 0.00 0.00 67 1020.2
20260906003408 25 200 6.4 9.7 0.00 0.00 0.00 67 1020.3
20260906002408 25 220 8.0 11.3 0.00 0.00 0.00 67 1020.3
20260906001408 25 229 8.0 12.9 0.00 0.00 0.00 70 1020.3
20260906000411 25 220 9.7 12.9 0.00 0.00 0.00 69 1020.3
20260905235409 25 208 9.7 14.5 0.00 0.00 0.00 68 1020.5
20260905234406 25 221 6.4 12.9 0.00 0.00 0.00 70 1020.7
20260905232413 25 214 3.2 6.4 0.00 0.00 0.00 76 1020.8
20260905230406 25 213 3.2 9.7 0.00 0.00 0.00 75 1020.7
20260905224406 26 205 3.2 8.0 0.00 0.00 0.00 76 1020.6
20260905223406 26 216 4.8 9.7 0.00 0.00 0.00 76 1020.7
20260905222406 26 214 4.8 9.7 0.00 0.00 0.00 75 1020.7
20260905221414 26 207 6.4 9.7 0.00 0.00 0.00 75 1020.8
20260905220406 26 209 6.4 11.3 0.00 0.00 0.00 75 1020.7
20260905215359 26 231 4.8 9.7 0.00 0.00 0.00 76 1020.7
20260905214359 26 225 4.8 8.0 0.00 0.00 0.00 76 1020.7
20260905213359 26 212 4.8 8.0 0.00 0.00 0.00 77 1020.8
20260905212358 26 225 4.8 6.4 0.00 0.00 0.00 78 1020.7
20260905211357 26 198 3.2 8.0 0.00 0.00 0.00 78 1020.7
20260905210357 26 198 4.8 8.0 0.00 0.00 0.00 77 1020.8
20260905205357 26 182 3.2 8.0 0.00 0.00 0.00 76 1020.8
20260905204357 26 184 3.2 6.4 0.00 0.00 0.00 76 1020.8
20260905203359 26 179 4.8 8.0 0.00 0.00 0.00 76 1020.8
20260905201351 26 200 4.8 8.0 0.00 0.00 0.00 75 1020.9
20260905200351 26 193 4.8 9.7 0.00 0.00 0.00 75 1020.8
20260905195351 26 202 4.8 8.0 0.00 0.00 0.00 75 1020.9
20260905194351 27 204 4.8 8.0 0.00 0.00 0.00 74 1020.9
20260905193355 27 207 3.2 8.0 0.00 0.00 0.00 73 1020.9
20260905192355 27 194 4.8 6.4 0.00 0.00 0.00 74 1020.8
20260905191351 27 199 4.8 8.0 0.00 0.00 0.00 73 1020.7
20260905190350 27 178 3.2 6.4 0.00 0.00 0.00 74 1020.6
20260905185356 27 204 1.6 6.4 0.00 0.00 0.00 73 1020.5
20260905184351 28 336 0.0 3.2 0.00 0.00 0.00 73 1020.3
20260905182350 28 336 1.6 4.8 0.00 0.00 0.00 74 1020.2
20260905181354 28 336 0.0 0.0 0.00 0.00 0.00 73 1020.2
20260905180350 28 336 0.0 0.0 0.00 0.00 0.00 73 1020.0
20260905175350 28 336 0.0 4.8 0.00 0.00 0.00 72 1019.9
20260905174351 28 336 1.6 4.8 0.00 0.00 0.00 72 1019.8
20260905173350 28 336 3.2 4.8 0.00 0.00 0.00 72 1019.8
20260905172357 29 336 3.2 6.4 0.00 0.00 0.00 71 1019.8
20260905171350 29 336 4.8 8.0 0.00 0.00 0.00 71 1019.8
20260905170351 29 351 4.8 8.0 0.00 0.00 0.00 69 1019.7
20260905164350 30 344 6.4 9.7 0.00 0.00 0.00 67 1019.6
20260905163351 30 345 6.4 12.9 0.00 0.00 0.00 66 1019.7
20260905162357 30 346 8.0 12.9 0.00 0.00 0.00 66 1019.7
20260905160353 30 15 8.0 16.1 0.00 0.00 0.00 65 1019.9
20260905155347 30 355 9.7 16.1 0.00 0.00 0.00 66 1019.8
20260905154346 30 355 9.7 17.7 0.00 0.00 0.00 66 1019.9
20260905153344 30 16 8.0 17.7 0.00 0.00 0.00 66 1019.9
20260905152344 31 355 8.0 17.7 0.00 0.00 0.00 66 1019.8
20260905151344 31 55 6.4 17.7 0.00 0.00 0.00 65 1019.8
20260905150346 31 58 8.0 16.1 0.00 0.00 0.00 65 1019.7
20260905145344 31 5 9.7 16.1 0.00 0.00 0.00 61 1019.7
20260905144344 31 344 9.7 16.1 0.00 0.00 0.00 63 1019.7
20260905143346 31 348 8.0 16.1 0.00 0.00 0.00 61 1019.8
20260905142344 32 30 6.4 14.5 0.00 0.00 0.00 59 1019.8
20260905140346 32 311 6.4 14.5 0.00 0.00 0.00 46 1019.9
20260905135343 32 302 4.8 12.9 0.00 0.00 0.00 45 1019.9
20260905134346 32 355 4.8 12.9 0.00 0.00 0.00 46 1019.9
20260905133345 31 311 6.4 14.5 0.00 0.00 0.00 56 1020.0
20260905132346 31 321 8.0 14.5 0.00 0.00 0.00 58 1020.1
20260905130340 31 321 6.4 14.5 0.00 0.00 0.00 63 1020.3
20260905125343 31 317 8.0 16.1 0.00 0.00 0.00 60 1020.3
20260905124348 31 343 6.4 14.5 0.00 0.00 0.00 57 1020.3
20260905122345 31 329 9.7 17.7 0.00 0.00 0.00 61 1020.4
20260905121340 31 26 6.4 16.1 0.00 0.00 0.00 63 1020.5
20260905120333 31 355 8.0 16.1 0.00 0.00 0.00 61 1020.6
20260905113337 31 34 6.4 14.5 0.00 0.00 0.00 63 1020.7
20260905112332 30 0 9.7 17.7 0.00 0.00 0.00 63 1020.7
20260905111331 31 347 9.7 17.7 0.00 0.00 0.00 64 1020.7
20260905110334 31 355 8.0 16.1 0.00 0.00 0.00 66 1020.7
20260905105332 31 348 9.7 17.7 0.00 0.00 0.00 63 1020.7
20260905104331 31 0 8.0 12.9 0.00 0.00 0.00 62 1020.6
20260905103332 30 14 8.0 16.1 0.00 0.00 0.00 63 1020.6
20260905102332 31 21 9.7 19.3 0.00 0.00 0.00 64 1020.7
20260905101330 31 355 9.7 19.3 0.00 0.00 0.00 61 1020.7
20260905100331 31 328 9.7 17.7 0.00 0.00 0.00 58 1020.6
20260905095336 31 316 9.7 16.1 0.00 0.00 0.00 54 1020.6
20260905094329 31 344 9.7 19.3 0.00 0.00 0.00 58 1020.6
20260905093323 31 317 8.0 17.7 0.00 0.00 0.00 57 1020.7